Waarnemingen

Advertentie
Mijn weer
Lyon/Bron, Frankrijk (7480): temperatuur & dauwpunt: 12.01.2020 11:00:00 - 18.01.2020 11:00:00 (CET)Lyon/Bron, Frankrijk (7480): temperatuur 5cm: 12.01.2020 11:00:00 - 18.01.2020 11:00:00 (CET)Lyon/Bron, Frankrijk (7480): temperatuur -20cm: 12.01.2020 11:00:00 - 18.01.2020 11:00:00 (CET)Lyon/Bron, Frankrijk (7480): windsnelheid & windstoten: 12.01.2020 11:00:00 - 18.01.2020 11:00:00 (CET)Lyon/Bron, Frankrijk (7480): windrichting: 12.01.2020 11:00:00 - 18.01.2020 11:00:00 (CET)Lyon/Bron, Frankrijk (7480): luchtdruk: 12.01.2020 11:00:00 - 18.01.2020 11:00:00 (CET)Lyon/Bron, Frankrijk (7480): zicht: 12.01.2020 11:00:00 - 18.01.2020 11:00:00 (CET)Lyon/Bron, Frankrijk (7480): Zonneschijnduur: 12.01.2020 11:00:00 - 18.01.2020 11:00:00 (CET)Lyon/Bron, Frankrijk (7480): neerslag: 12.01.2020 11:00:00 - 18.01.2020 11:00:00 (CET)
Datum & Tijd tt [°C] td [°C] tt 5cm [°C] tt -20cm [°C] ff [km/u] ff [kn] fx [km/u] fx [kn] dd ppp [hPa] vv [km] sd [min] rr [mm]
18.01.2020 11:00:00 - - - - - - - - - - - - -
18.01.2020 10:00:00 4,4 3,5 -0,1 6,9 6 4 9 5 WZW 1031,1 19 60 0,0
18.01.2020 09:00:00 1,6 1,2 -1,5 7,0 2 1 9 5 ZZW 1031,2 7 19 0,0
18.01.2020 08:00:00 1,2 0,5 -1,0 7,1 4 2 9 5 OZO 1031,1 14 0 0,0
18.01.2020 07:00:00 1,5 0,6 -1,0 7,2 3 1 5 3 Z 1030,6 16 0 0,0
18.01.2020 06:00:00 2,6 1,9 0,5 7,3 4 2 7 4 N 1030,6 23 0 0,0
18.01.2020 05:00:00 2,2 1,3 0,1 7,5 3 2 10 6 ZO 1031,0 30 0 0,0
18.01.2020 04:00:00 2,6 1,6 -0,4 7,6 3 1 13 7 ONO 1030,9 53 0 0,0
18.01.2020 03:00:00 2,7 1,4 0,0 7,6 5 3 9 5 ONO 1030,9 40 0 0,0
18.01.2020 02:00:00 3,7 1,7 1,0 7,7 3 2 11 6 ZZW 1030,6 54 0 0,0
18.01.2020 01:00:00 5,7 2,3 3,3 7,7 7 4 23 12 NNW 1030,0 60 0 0,0
18.01.2020 00:00:00 7,0 3,2 5,4 7,8 11 6 22 12 NW 1029,4 60 0 0,0
17.01.2020 23:00:00 7,7 3,7 5,9 7,9 13 7 26 14 WNW 1028,7 59 0 0,0
17.01.2020 22:00:00 7,2 4,8 5,5 7,8 9 5 16 9 W 1028,1 51 0 0,0
17.01.2020 21:00:00 6,9 5,7 5,7 7,9 0 0 9 5 N 1027,5 24 0 0,0
17.01.2020 20:00:00 7,2 5,8 6,2 7,9 4 2 7 4 ZO 1026,6 27 0 0,0
17.01.2020 19:00:00 7,5 6,0 6,2 7,8 4 2 11 6 ZZO 1025,7 47 0 0,0
17.01.2020 18:00:00 7,6 5,7 6,5 7,8 6 3 24 13 NNO 1024,2 60 0 0,2
17.01.2020 17:00:00 7,8 5,8 6,7 7,7 17 9 54 29 WNW 1024,0 14 0 2,7
17.01.2020 16:00:00 10,9 7,8 10,0 7,7 15 8 21 11 Z 1021,9 58 2 0,0
17.01.2020 15:00:00 10,6 8,0 9,8 7,6 15 8 24 13 Z 1021,7 40 0 0,0
17.01.2020 14:00:00 10,3 8,4 8,9 7,6 15 8 24 13 Z 1022,1 41 0 0,2
17.01.2020 13:00:00 9,8 8,1 8,6 7,6 12 7 44 24 ZW 1022,5 15 0 0,6
17.01.2020 12:00:00 9,6 7,9 8,4 7,5 21 12 38 21 Z 1022,9 14 0 1,8
17.01.2020 11:00:00 10,0 7,2 8,3 7,5 23 13 43 23 Z 1023,4 6 0 0,8
17.01.2020 10:00:00 11,4 5,5 10,6 7,5 25 14 57 31 Z 1023,2 52 0 0,0
17.01.2020 09:00:00 11,4 5,0 10,4 7,5 29 16 56 30 Z 1023,3 60 0 0,0
17.01.2020 08:00:00 11,2 4,9 9,9 7,5 36 19 72 39 Z 1023,2 60 0 0,0
17.01.2020 07:00:00 11,0 4,2 9,5 7,5 37 20 66 35 Z 1022,9 60 0 0,0
17.01.2020 06:00:00 11,0 4,2 9,8 7,5 36 20 64 35 Z 1022,7 60 0 0,0
17.01.2020 05:00:00 11,0 4,4 9,7 7,5 34 19 62 34 Z 1022,9 60 0 0,0
17.01.2020 04:00:00 10,8 5,3 9,5 7,6 27 15 47 26 Z 1023,5 60 0 0,0
17.01.2020 03:00:00 11,3 5,4 9,8 7,6 32 17 72 39 Z 1024,1 60 0 0,0
17.01.2020 02:00:00 10,8 4,9 9,5 7,6 21 11 41 22 ZZO 1023,9 60 0 0,0
17.01.2020 01:00:00 11,0 5,3 10,0 7,7 22 12 46 25 ZZO 1023,8 60 0 0,0
17.01.2020 00:00:00 11,2 5,7 9,9 7,7 23 12 56 30 ZZO 1024,2 59 0 0,0
16.01.2020 23:00:00 11,0 5,5 9,1 7,7 21 11 38 20 Z 1024,9 60 0 0,0
16.01.2020 22:00:00 10,7 5,4 8,8 7,7 17 9 32 17 Z 1025,4 59 0 0,0
16.01.2020 21:00:00 11,0 5,9 9,0 7,7 21 11 37 20 Z 1025,7 56 0 0,0
16.01.2020 20:00:00 10,7 5,9 9,1 7,7 16 9 31 17 Z 1026,1 57 0 0,0
16.01.2020 19:00:00 10,9 5,2 9,7 7,6 16 9 34 18 ZZO 1026,0 60 0 0,0
16.01.2020 18:00:00 11,7 4,9 10,4 7,5 25 14 46 25 Z 1025,8 60 0 0,0
16.01.2020 17:00:00 12,6 4,3 11,6 7,4 28 15 50 27 Z 1025,4 19 42 0,0
16.01.2020 16:00:00 13,6 5,5 14,5 7,3 26 14 54 29 Z 1025,5 60 60 0,0
16.01.2020 15:00:00 13,8 5,2 14,9 7,1 32 18 53 29 ZZO 1025,4 57 60 0,0
16.01.2020 14:00:00 13,6 5,2 14,7 7,0 29 15 48 26 ZZO 1026,3 54 60 0,0
16.01.2020 13:00:00 13,3 5,4 14,8 7,0 29 16 46 25 Z 1026,9 54 60 0,0
16.01.2020 12:00:00 12,0 5,4 14,7 7,0 7 4 14 8 Z 1027,8 20 60 0,0
16.01.2020 11:00:00 10,0 4,8 6,5 7,1 4 2 10 5 ZW 1028,6 31 60 0,0
16.01.2020 10:00:00 6,1 4,1 3,8 7,2 2 1 12 6 ZZO 1028,9 26 60 0,0
16.01.2020 09:00:00 4,3 2,3 0,7 7,3 8 5 14 7 O 1028,8 33 0 0,0
16.01.2020 08:00:00 4,9 2,8 2,2 7,4 3 2 14 7 OZO 1028,6 18 0 0,0
16.01.2020 07:00:00 5,2 4,0 0,5 7,4 10 6 13 7 OZO 1028,2 38 0 0,0
16.01.2020 06:00:00 4,5 3,2 0,4 7,5 2 1 10 6 ONO 1028,3 20 0 0,0
16.01.2020 05:00:00 5,9 4,4 2,1 7,5 3 2 11 6 NNO 1028,2 49 0 0,0
16.01.2020 04:00:00 7,8 5,3 4,4 7,5 3 1 21 11 WZW 1028,1 59 0 0,0
16.01.2020 03:00:00 9,7 5,9 8,0 7,5 10 6 15 8 Z 1028,0 59 0 0,0
16.01.2020 02:00:00 9,1 6,0 7,2 7,5 11 6 18 10 Z 1028,0 57 0 0,0
16.01.2020 01:00:00 9,8 6,1 8,0 7,5 5 3 23 13 Z 1028,0 54 0 0,0
16.01.2020 00:00:00 10,3 6,3 9,1 7,6 16 9 31 17 Z 1027,8 54 0 0,0
15.01.2020 23:00:00 10,3 6,3 9,2 7,6 20 11 36 19 Z 1027,4 56 0 0,0
15.01.2020 22:00:00 10,1 6,4 8,9 7,6 21 11 37 20 Z 1027,1 50 0 0,0
15.01.2020 21:00:00 10,5 6,4 9,3 7,6 29 16 50 27 Z 1026,5 53 0 0,0
15.01.2020 20:00:00 10,6 5,6 9,5 7,6 27 15 45 25 Z 1026,3 60 0 0,0
15.01.2020 19:00:00 11,0 5,3 9,7 7,5 29 16 52 28 Z 1025,6 60 0 0,0
15.01.2020 18:00:00 11,2 5,5 10,1 7,5 36 20 62 33 Z 1024,5 60 0 0,0
15.01.2020 17:00:00 11,7 5,3 10,8 7,4 36 19 69 37 Z 1023,6 58 32 0,0
15.01.2020 16:00:00 12,7 5,4 13,4 7,2 45 24 74 40 Z 1022,9 31 60 0,0
15.01.2020 15:00:00 13,2 5,6 13,0 7,2 45 24 92 50 Z 1022,6 20 51 0,0
15.01.2020 14:00:00 12,5 5,9 12,5 7,1 40 21 67 36 Z 1023,0 56 0 0,0
15.01.2020 13:00:00 12,5 5,4 12,4 7,0 38 21 72 39 Z 1023,1 60 0 0,0
15.01.2020 12:00:00 12,6 5,5 12,2 7,0 37 20 69 37 ZZW 1022,7 60 2 0,0
15.01.2020 11:00:00 12,5 5,2 12,0 7,0 31 17 61 33 ZZW 1022,3 57 0 0,0
15.01.2020 10:00:00 12,3 4,0 10,5 7,0 36 19 61 33 Z 1021,2 58 21 0,0
15.01.2020 09:00:00 11,5 3,5 9,5 7,0 24 13 56 30 Z 1020,6 49 17 0,0
15.01.2020 08:00:00 11,1 3,4 9,6 7,0 29 16 66 36 Z 1020,5 60 0 0,0
15.01.2020 07:00:00 11,4 4,4 9,8 7,0 42 23 75 41 Z 1019,9 60 0 0,0
15.01.2020 06:00:00 11,2 3,7 10,0 7,0 36 19 75 40 Z 1019,5 60 0 0,0
15.01.2020 05:00:00 11,5 3,3 10,0 7,0 43 23 79 43 Z 1019,0 60 0 0,0
15.01.2020 04:00:00 11,5 3,8 9,9 7,0 41 22 74 40 Z 1019,1 60 0 0,0
15.01.2020 03:00:00 11,1 3,6 9,8 7,0 44 24 76 41 Z 1019,1 60 0 0,0
15.01.2020 02:00:00 11,1 4,1 9,8 7,0 40 22 73 39 Z 1019,7 60 0 0,0
15.01.2020 01:00:00 11,1 4,1 9,9 7,0 39 21 68 37 Z 1019,9 60 0 0,0
15.01.2020 00:00:00 11,0 4,2 9,9 7,0 36 20 79 42 Z 1019,7 60 0 0,0
14.01.2020 23:00:00 11,1 4,5 10,1 7,0 43 23 77 41 Z 1019,3 60 0 0,0
14.01.2020 22:00:00 11,3 5,0 10,1 7,0 42 23 67 36 Z 1019,4 59 0 0,0
14.01.2020 21:00:00 11,3 4,5 10,2 7,0 41 22 73 40 Z 1019,5 60 0 0,0
14.01.2020 20:00:00 11,4 4,4 10,0 6,9 39 21 61 33 Z 1019,6 60 0 0,0
14.01.2020 19:00:00 11,1 4,8 9,9 6,8 34 18 56 31 Z 1019,6 60 0 0,0
14.01.2020 18:00:00 11,3 4,5 10,1 6,8 37 20 61 33 Z 1019,5 60 0 0,0
14.01.2020 17:00:00 11,8 3,8 10,9 6,7 39 21 69 37 Z 1019,1 56 45 0,0
14.01.2020 16:00:00 12,5 4,5 12,9 6,5 41 22 77 42 Z 1018,7 60 57 0,0
14.01.2020 15:00:00 12,8 5,2 13,0 6,4 42 23 69 38 Z 1018,8 54 20 0,0
14.01.2020 14:00:00 12,7 4,9 12,7 6,3 37 20 80 43 Z 1019,0 39 43 0,0
14.01.2020 13:00:00 12,7 4,9 12,9 6,2 45 25 82 44 Z 1019,4 33 51 0,0
14.01.2020 12:00:00 11,9 4,6 12,5 6,2 40 22 68 37 Z 1019,9 40 51 0,0
14.01.2020 11:00:00 11,3 4,3 9,4 6,2 40 22 68 37 Z 1020,1 44 60 0,0
14.01.2020 10:00:00 10,1 4,0 8,6 6,2 34 18 60 33 Z 1019,9 43 40 0,0
14.01.2020 09:00:00 9,5 3,9 8,0 6,1 35 19 67 36 Z 1019,2 48 8 0,0
14.01.2020 08:00:00 9,2 3,2 7,4 6,2 38 21 67 36 Z 1019,0 60 0 0,0
14.01.2020 07:00:00 8,9 3,3 7,4 6,2 31 17 59 32 Z 1019,0 59 0 0,0
14.01.2020 06:00:00 8,7 2,5 7,1 6,2 37 20 58 31 Z 1018,8 60 0 0,0
14.01.2020 05:00:00 8,6 2,6 7,4 6,2 40 21 65 35 Z 1018,3 59 0 0,0
14.01.2020 04:00:00 8,5 3,1 7,4 6,2 37 20 63 34 Z 1018,1 56 0 0,0
14.01.2020 03:00:00 8,9 2,5 7,6 6,2 42 23 66 36 Z 1018,7 60 0 0,0
14.01.2020 02:00:00 8,7 2,0 6,9 6,2 36 20 58 31 Z 1018,9 57 0 0,0
14.01.2020 01:00:00 9,0 1,9 7,5 6,3 32 17 58 31 Z 1019,2 58 0 0,0
14.01.2020 00:00:00 9,0 1,6 7,5 6,3 34 18 56 31 Z 1019,5 59 0 0,0
13.01.2020 23:00:00 8,9 2,5 7,0 6,4 31 17 51 28 Z 1018,8 50 0 0,0
13.01.2020 22:00:00 8,4 2,4 6,7 6,4 26 14 44 24 Z 1019,0 47 0 0,0
13.01.2020 21:00:00 8,1 2,1 6,8 6,4 25 13 42 23 Z 1019,2 46 0 0,0
13.01.2020 20:00:00 8,0 0,9 5,5 6,4 22 12 37 20 ZZO 1020,0 56 0 0,0
13.01.2020 19:00:00 7,3 0,5 2,0 6,4 15 8 24 13 Z 1020,5 49 0 0,0
13.01.2020 18:00:00 5,3 2,5 1,4 6,4 11 6 19 10 ZZO 1020,6 14 0 0,0
13.01.2020 17:00:00 7,6 2,7 5,3 6,2 5 3 12 7 NO 1020,8 15 36 0,0
13.01.2020 16:00:00 8,5 3,1 8,8 6,1 9 5 22 12 O 1020,6 15 58 0,0
13.01.2020 15:00:00 8,2 3,6 8,3 6,0 13 7 18 10 O 1021,7 13 15 0,0
13.01.2020 14:00:00 7,8 4,7 8,5 5,9 8 5 18 10 ZO 1022,8 19 0 0,0
13.01.2020 13:00:00 6,9 4,0 7,7 5,8 7 4 12 7 ZZO 1023,6 13 0 0,0
13.01.2020 12:00:00 6,2 3,5 6,4 5,8 7 4 14 8 ZZW 1024,9 8 0 0,0
13.01.2020 11:00:00 4,4 2,1 4,2 5,8 6 3 10 5 Z 1025,7 7 0 0,0
13.01.2020 10:00:00 3,2 1,4 3,0 5,9 6 3 8 4 ONO 1026,3 4,5 4 0,0
13.01.2020 09:00:00 2,6 1,4 2,3 5,9 4 2 6 3 ONO 1026,4 4,5 0 0,0
13.01.2020 08:00:00 2,3 1,1 1,8 5,9 3 2 5 3 N 1026,5 4,8 0 0,0
13.01.2020 07:00:00 1,8 0,8 1,5 5,9 3 2 8 4 ONO 1026,7 3,9 0 0,0
13.01.2020 06:00:00 1,7 0,5 1,5 6,0 3 2 7 4 NO 1027,1 4,0 0 0,0
13.01.2020 05:00:00 1,4 0,4 0,7 6,1 4 2 5 3 OZO 1027,4 4,8 0 0,0
13.01.2020 04:00:00 0,8 0,2 -0,4 6,2 4 2 5 3 NNW 1028,0 4,9 0 0,0
13.01.2020 03:00:00 -0,1 -0,7 -2,4 6,3 3 2 7 4 O 1028,4 4,0 0 0,0
13.01.2020 02:00:00 -0,3 -1,0 -3,2 6,4 5 3 7 4 O 1028,7 3,6 0 0,0
13.01.2020 01:00:00 -0,1 -1,0 -2,7 6,5 4 2 6 3 OZO 1029,2 3,0 0 0,0
13.01.2020 00:00:00 0,5 -0,4 -2,3 6,6 6 3 8 5 ZO 1029,7 4,7 0 0,0
12.01.2020 23:00:00 1,3 0,4 -1,9 6,7 2 1 7 4 WZW 1029,7 4,0 0 0,0
12.01.2020 22:00:00 1,5 0,6 -1,3 6,7 5 3 7 4 Z 1030,0 4,8 0 0,0
12.01.2020 21:00:00 1,7 0,4 -1,0 6,8 5 3 7 4 Z 1030,4 7 0 0,0
12.01.2020 20:00:00 2,5 0,7 -0,3 6,8 2 1 4 2 ZZO 1030,7 8 0 0,0
12.01.2020 19:00:00 3,5 1,0 0,5 6,8 0 0 4 2 N 1030,4 11 0 0,0
12.01.2020 18:00:00 5,0 1,5 1,8 6,7 3 2 7 4 NO 1030,1 13 0 0,0
12.01.2020 17:00:00 6,6 1,7 5,2 6,6 6 3 10 6 N 1029,9 17 33 0,0
12.01.2020 16:00:00 7,8 1,8 9,9 6,5 6 4 11 6 NO 1029,7 20 50 0,0
12.01.2020 15:00:00 8,3 2,1 10,3 6,4 5 3 13 7 O 1029,8 16 60 0,0
12.01.2020 14:00:00 8,0 2,4 10,3 6,3 7 4 14 7 ONO 1030,5 16 60 0,0
12.01.2020 13:00:00 7,8 1,8 10,5 6,3 4 2 9 5 NNO 1031,2 12 60 0,0
12.01.2020 12:00:00 5,6 1,3 8,5 6,4 4 2 9 5 NNW 1032,1 14 60 0,0
12.01.2020 11:00:00 4,8 0,9 0,8 6,5 4 2 7 4 ZO 1032,5 13 60 0,0

tt = temperatuur
td = dauwpunt
tt 5cm = temperatuur 5cm
tt -20cm = temperatuur -20cm
ff = windsnelheid
fx = windstoten
dd = windrichting
ppp = luchtdruk
vv = zicht
sd = Zonneschijnduur
rr = neerslag

Weerstations in de omgeving